Grub im Wienerwald
Wetterdaten: aktuell Donnerstag, 22.04.2021 19:42
Datum Zeit Temp. A. Feuchte A. Luftdruck Regen Wind Richtung Richtung Sonnenschein UV Solar Taupunkt Windchill Windben
22.04.2021 19:42 9,8 C 81 % 1018,2 hPa 0,0 l/m 5,2 km/h NW 311 0 min 0,0 UV-I 11 W/m 6,7 C 9,8 C 9,7 km/h
22.04.2021 19:39 9,8 C 80 % 1018,2 hPa 0,0 l/m 6,2 km/h NW 311 0 min 0,0 UV-I 12 W/m 6,5 C 9,8 C 9,7 km/h
22.04.2021 19:36 9,9 C 80 % 1018,1 hPa 0,0 l/m 4,6 km/h NW 311 0 min 0,0 UV-I 12 W/m 6,6 C 9,9 C 8,0 km/h
22.04.2021 19:33 9,9 C 80 % 1018,0 hPa 0,0 l/m 4,1 km/h NW 311 0 min 0,0 UV-I 14 W/m 6,6 C 9,9 C 6,4 km/h
22.04.2021 19:30 9,9 C 80 % 1018,1 hPa 0,0 l/m 5,5 km/h NW 311 0 min 0,0 UV-I 19 W/m 6,6 C 9,9 C 9,7 km/h
22.04.2021 19:27 10,0 C 80 % 1018,0 hPa 0,0 l/m 5,3 km/h NW 311 0 min 0,0 UV-I 25 W/m 6,7 C 10,0 C 9,7 km/h
22.04.2021 19:24 10,1 C 80 % 1017,9 hPa 0,0 l/m 4,9 km/h NW 311 0 min 0,0 UV-I 23 W/m 6,8 C 10,1 C 9,7 km/h
22.04.2021 19:21 10,1 C 80 % 1017,9 hPa 0,0 l/m 2,5 km/h NW 311 0 min 0,0 UV-I 25 W/m 6,8 C 10,1 C 4,8 km/h
22.04.2021 19:18 10,2 C 79 % 1017,8 hPa 0,0 l/m 4,5 km/h NW 311 0 min 0,0 UV-I 28 W/m 6,7 C 10,2 C 8,0 km/h
22.04.2021 19:15 10,2 C 80 % 1017,9 hPa 0,0 l/m 4,0 km/h NW 311 0 min 0,0 UV-I 32 W/m 6,9 C 10,2 C 8,0 km/h
22.04.2021 19:12 10,2 C 80 % 1017,9 hPa 0,0 l/m 0,4 km/h NW 311 0 min 0,0 UV-I 35 W/m 6,9 C 10,2 C 3,2 km/h
22.04.2021 19:09 10,3 C 79 % 1017,7 hPa 0,0 l/m 0,2 km/h NW 311 0 min 0,0 UV-I 32 W/m 6,8 C 10,3 C 3,2 km/h
22.04.2021 19:06 10,3 C 79 % 1017,7 hPa 0,0 l/m 1,2 km/h NW 311 0 min 0,0 UV-I 33 W/m 6,8 C 10,3 C 4,8 km/h
22.04.2021 19:03 10,3 C 79 % 1017,6 hPa 0,0 l/m 0,3 km/h NW 311 0 min 0,0 UV-I 37 W/m 6,8 C 10,3 C 3,2 km/h
22.04.2021 19:00 10,3 C 79 % 1017,5 hPa 0,0 l/m 3,3 km/h NW 311 0 min 0,0 UV-I 49 W/m 6,8 C 10,3 C 6,4 km/h
22.04.2021 18:57 10,3 C 79 % 1017,5 hPa 0,0 l/m 2,4 km/h NW 311 0 min 0,6 UV-I 58 W/m 6,8 C 10,3 C 8,0 km/h
22.04.2021 18:54 10,3 C 80 % 1017,5 hPa 0,0 l/m 3,1 km/h NW 311 0 min 0,6 UV-I 62 W/m 7,0 C 10,3 C 6,4 km/h
22.04.2021 18:51 10,3 C 79 % 1017,5 hPa 0,0 l/m 3,9 km/h NW 311 0 min 0,6 UV-I 65 W/m 6,8 C 10,3 C 6,4 km/h
22.04.2021 18:48 10,3 C 79 % 1017,5 hPa 0,0 l/m 4,9 km/h NW 311 0 min 0,6 UV-I 95 W/m 6,8 C 10,3 C 8,0 km/h
22.04.2021 18:45 10,3 C 79 % 1017,4 hPa 0,0 l/m 2,1 km/h NW 311 3 min 0,6 UV-I 114 W/m 6,8 C 10,3 C 6,4 km/h
22.04.2021 18:42 10,3 C 78 % 1017,5 hPa 0,0 l/m 3,6 km/h NW 311 3 min 0,6 UV-I 127 W/m 6,6 C 10,3 C 8,0 km/h
22.04.2021 18:39 10,3 C 79 % 1017,4 hPa 0,0 l/m 3,0 km/h NW 311 3 min 0,6 UV-I 120 W/m 6,8 C 10,3 C 6,4 km/h
22.04.2021 18:36 10,4 C 79 % 1017,4 hPa 0,0 l/m 4,5 km/h NW 311 3 min 0,7 UV-I 137 W/m 6,9 C 10,4 C 11,3 km/h
22.04.2021 18:33 10,4 C 79 % 1017,5 hPa 0,0 l/m 7,5 km/h NW 311 3 min 0,7 UV-I 123 W/m 6,9 C 9,6 C 11,3 km/h
22.04.2021 18:30 10,4 C 79 % 1017,5 hPa 0,0 l/m 4,2 km/h NW 324 3 min 0,7 UV-I 125 W/m 6,9 C 10,4 C 6,4 km/h
22.04.2021 18:27 10,4 C 79 % 1017,4 hPa 0,0 l/m 6,4 km/h NW 324 0 min 0,7 UV-I 128 W/m 6,9 C 10,4 C 12,9 km/h
22.04.2021 18:24 10,5 C 80 % 1017,4 hPa 0,0 l/m 3,0 km/h NW 325 0 min 0,7 UV-I 128 W/m 7,2 C 10,5 C 6,4 km/h
22.04.2021 18:21 10,5 C 79 % 1017,3 hPa 0,0 l/m 2,2 km/h NW 325 0 min 0,8 UV-I 137 W/m 7,0 C 10,5 C 6,4 km/h
22.04.2021 18:18 10,5 C 79 % 1017,3 hPa 0,0 l/m 4,8 km/h NW 325 3 min 0,8 UV-I 151 W/m 7,0 C 10,5 C 8,0 km/h
22.04.2021 18:15 10,5 C 80 % 1017,3 hPa 0,0 l/m 3,7 km/h NW 325 3 min 0,8 UV-I 165 W/m 7,2 C 10,5 C 6,4 km/h
22.04.2021 18:12 10,5 C 81 % 1017,4 hPa 0,0 l/m 4,2 km/h NW 325 3 min 0,9 UV-I 163 W/m 7,4 C 10,5 C 11,3 km/h
22.04.2021 18:09 10,4 C 81 % 1017,3 hPa 0,0 l/m 2,0 km/h NW 313 3 min 0,9 UV-I 239 W/m 7,3 C 10,4 C 4,8 km/h
22.04.2021 18:06 10,3 C 81 % 1017,3 hPa 0,0 l/m 2,2 km/h NW 313 3 min 0,9 UV-I 223 W/m 7,2 C 10,3 C 8,0 km/h
22.04.2021 18:03 10,3 C 82 % 1017,4 hPa 0,0 l/m 3,6 km/h NW 313 3 min 1,0 UV-I 214 W/m 7,4 C 10,3 C 8,0 km/h
22.04.2021 18:00 10,2 C 82 % 1017,4 hPa 0,0 l/m 0,5 km/h NW 313 3 min 1,0 UV-I 213 W/m 7,3 C 10,2 C 3,2 km/h
22.04.2021 17:57 10,1 C 81 % 1017,3 hPa 0,0 l/m 0,5 km/h NW 313 3 min 1,0 UV-I 193 W/m 7,0 C 10,1 C 3,2 km/h
22.04.2021 17:54 10,1 C 82 % 1017,3 hPa 0,0 l/m 0,3 km/h NW 313 3 min 1,0 UV-I 181 W/m 7,2 C 10,1 C 3,2 km/h
22.04.2021 17:51 10,1 C 83 % 1017,3 hPa 0,0 l/m 2,6 km/h NW 313 0 min 1,0 UV-I 174 W/m 7,3 C 10,1 C 4,8 km/h
22.04.2021 17:48 10,0 C 83 % 1017,3 hPa 0,0 l/m 2,1 km/h NW 313 0 min 1,0 UV-I 188 W/m 7,2 C 10,0 C 4,8 km/h
22.04.2021 17:45 9,9 C 82 % 1017,3 hPa 0,0 l/m 3,1 km/h NW 313 3 min 1,1 UV-I 248 W/m 7,0 C 9,9 C 8,0 km/h
22.04.2021 17:42 9,9 C 82 % 1017,3 hPa 0,0 l/m 1,7 km/h NW 313 0 min 1,0 UV-I 174 W/m 7,0 C 9,9 C 8,0 km/h
22.04.2021 17:39 9,9 C 82 % 1017,3 hPa 0,0 l/m 5,2 km/h NW 313 0 min 1,1 UV-I 181 W/m 7,0 C 9,9 C 9,7 km/h
22.04.2021 17:36 9,9 C 83 % 1017,4 hPa 0,0 l/m 5,9 km/h NW 313 0 min 1,1 UV-I 190 W/m 7,2 C 9,9 C 9,7 km/h
22.04.2021 17:33 9,9 C 83 % 1017,4 hPa 0,0 l/m 4,1 km/h NW 313 0 min 1,1 UV-I 178 W/m 7,2 C 9,9 C 8,0 km/h
22.04.2021 17:30 9,8 C 82 % 1017,4 hPa 0,0 l/m 0,9 km/h NW 313 0 min 1,1 UV-I 176 W/m 6,9 C 9,8 C 3,2 km/h
22.04.2021 17:27 9,8 C 82 % 1017,3 hPa 0,0 l/m 1,5 km/h NW 313 0 min 1,1 UV-I 172 W/m 6,9 C 9,8 C 4,8 km/h
22.04.2021 17:24 9,8 C 83 % 1017,3 hPa 0,0 l/m 1,6 km/h NW 313 0 min 1,1 UV-I 176 W/m 7,1 C 9,8 C 6,4 km/h
22.04.2021 17:21 9,9 C 83 % 1017,4 hPa 0,0 l/m 2,5 km/h NW 313 0 min 1,2 UV-I 209 W/m 7,2 C 9,9 C 11,3 km/h
22.04.2021 17:18 9,9 C 83 % 1017,4 hPa 0,0 l/m 1,6 km/h NW 312 0 min 1,2 UV-I 229 W/m 7,2 C 9,9 C 6,4 km/h
22.04.2021 17:15 9,9 C 83 % 1017,5 hPa 0,0 l/m 0,7 km/h NW 312 0 min 1,1 UV-I 179 W/m 7,2 C 9,9 C 4,8 km/h
22.04.2021 17:12 9,9 C 84 % 1017,4 hPa 0,0 l/m 1,5 km/h NW 312 0 min 1,0 UV-I 142 W/m 7,3 C 9,9 C 4,8 km/h
22.04.2021 17:09 10,0 C 84 % 1017,5 hPa 0,0 l/m 1,3 km/h NW 312 0 min 1,0 UV-I 130 W/m 7,4 C 10,0 C 4,8 km/h
22.04.2021 17:06 10,1 C 84 % 1017,5 hPa 0,0 l/m 1,4 km/h NW 312 0 min 0,9 UV-I 120 W/m 7,5 C 10,1 C 4,8 km/h
22.04.2021 17:03 10,1 C 84 % 1017,4 hPa 0,0 l/m 0,0 km/h NW 312 0 min 0,9 UV-I 120 W/m 7,5 C 10,1 C 1,6 km/h
22.04.2021 17:00 10,0 C 83 % 1017,3 hPa 0,0 l/m 0,0 km/h NW 312 0 min 1,0 UV-I 123 W/m 7,2 C 10,0 C 0,0 km/h
22.04.2021 16:57 10,1 C 83 % 1017,3 hPa 0,0 l/m 0,0 km/h NW 312 0 min 1,0 UV-I 125 W/m 7,3 C 10,1 C 1,6 km/h
22.04.2021 16:54 10,1 C 83 % 1017,3 hPa 0,0 l/m 0,0 km/h NW 312 0 min 1,0 UV-I 128 W/m 7,3 C 10,1 C 1,6 km/h
22.04.2021 16:51 10,1 C 83 % 1017,3 hPa 0,0 l/m 1,6 km/h NW 312 0 min 1,2 UV-I 156 W/m 7,3 C 10,1 C 6,4 km/h
22.04.2021 16:48 10,2 C 84 % 1017,3 hPa 0,0 l/m 0,0 km/h NW 312 0 min 1,2 UV-I 160 W/m 7,6 C 10,2 C 0,0 km/h
22.04.2021 16:45 10,2 C 84 % 1017,3 hPa 0,0 l/m 0,6 km/h NW 312 0 min 1,2 UV-I 123 W/m 7,6 C 10,2 C 4,8 km/h
22.04.2021 16:42 10,2 C 83 % 1017,5 hPa 0,0 l/m 3,4 km/h NW 312 0 min 1,2 UV-I 111 W/m 7,4 C 10,2 C 4,8 km/h
22.04.2021 16:39 10,3 C 83 % 1017,4 hPa 0,0 l/m 2,6 km/h NW 312 0 min 1,2 UV-I 137 W/m 7,5 C 10,3 C 6,4 km/h
22.04.2021 16:36 10,3 C 82 % 1017,5 hPa 0,0 l/m 4,8 km/h NW 312 0 min 1,3 UV-I 151 W/m 7,4 C 10,3 C 11,3 km/h
22.04.2021 16:33 10,3 C 83 % 1017,3 hPa 0,0 l/m 2,9 km/h NW 313 0 min 1,3 UV-I 162 W/m 7,5 C 10,3 C 6,4 km/h
22.04.2021 16:30 10,2 C 84 % 1017,3 hPa 0,0 l/m 4,6 km/h NW 313 0 min 1,7 UV-I 237 W/m 7,6 C 10,2 C 8,0 km/h
22.04.2021 16:27 10,2 C 83 % 1017,4 hPa 0,0 l/m 6,9 km/h NW 313 0 min 2,1 UV-I 272 W/m 7,4 C 9,8 C 11,3 km/h
22.04.2021 16:24 10,1 C 83 % 1017,3 hPa 0,0 l/m 5,6 km/h NW 313 3 min 2,0 UV-I 425 W/m 7,3 C 10,1 C 9,7 km/h
22.04.2021 16:21 10,0 C 84 % 1017,2 hPa 0,0 l/m 5,4 km/h NW 314 3 min 2,4 UV-I 466 W/m 7,4 C 10,0 C 9,7 km/h
22.04.2021 16:18 9,8 C 84 % 1017,3 hPa 0,0 l/m 2,7 km/h NW 315 3 min 2,4 UV-I 615 W/m 7,2 C 9,8 C 8,0 km/h
22.04.2021 16:15 9,8 C 84 % 1017,4 hPa 0,0 l/m 6,4 km/h NW 315 0 min 2,2 UV-I 288 W/m 7,2 C 9,8 C 12,9 km/h
22.04.2021 16:12 9,8 C 85 % 1017,4 hPa 0,0 l/m 5,3 km/h NW 315 0 min 1,5 UV-I 221 W/m 7,4 C 9,8 C 11,3 km/h
22.04.2021 16:09 9,8 C 85 % 1017,4 hPa 0,0 l/m 4,4 km/h NW 315 0 min 1,7 UV-I 251 W/m 7,4 C 9,8 C 11,3 km/h
22.04.2021 16:06 9,8 C 86 % 1017,4 hPa 0,0 l/m 4,9 km/h NW 315 3 min 2,2 UV-I 408 W/m 7,6 C 9,8 C 9,7 km/h
22.04.2021 16:03 9,8 C 87 % 1017,4 hPa 0,0 l/m 5,8 km/h NW 315 3 min 2,2 UV-I 364 W/m 7,7 C 9,8 C 11,3 km/h
22.04.2021 16:00 9,7 C 87 % 1017,4 hPa 0,0 l/m 4,9 km/h N 350 3 min 2,5 UV-I 352 W/m 7,6 C 9,7 C 8,0 km/h
22.04.2021 15:57 9,6 C 88 % 1017,5 hPa 0,0 l/m 6,8 km/h N 350 3 min 2,8 UV-I 504 W/m 7,7 C 9,3 C 12,9 km/h
22.04.2021 15:54 9,4 C 89 % 1017,5 hPa 0,0 l/m 7,9 km/h N-NW 347 3 min 3,0 UV-I 599 W/m 7,7 C 8,3 C 12,9 km/h
22.04.2021 15:51 9,3 C 88 % 1017,6 hPa 0,0 l/m 8,1 km/h N-NW 336 3 min 2,9 UV-I 531 W/m 7,4 C 8,0 C 14,5 km/h
22.04.2021 15:48 9,3 C 88 % 1017,7 hPa 0,0 l/m 12,9 km/h N-NW 332 3 min 2,6 UV-I 348 W/m 7,4 C 5,3 C 19,3 km/h
22.04.2021 15:45 9,3 C 88 % 1017,7 hPa 0,0 l/m 10,3 km/h NW 315 0 min 2,5 UV-I 257 W/m 7,4 C 6,6 C 17,7 km/h
22.04.2021 15:42 9,4 C 90 % 1017,6 hPa 0,0 l/m 9,0 km/h NW 323 0 min 2,5 UV-I 313 W/m 7,8 C 7,6 C 14,5 km/h
22.04.2021 15:39 9,4 C 90 % 1017,6 hPa 0,0 l/m 6,5 km/h N 355 0 min 2,5 UV-I 330 W/m 7,8 C 9,4 C 9,7 km/h
22.04.2021 15:36 9,3 C 91 % 1017,6 hPa 0,0 l/m 7,7 km/h N-NW 344 3 min 2,5 UV-I 381 W/m 7,9 C 8,3 C 14,5 km/h
22.04.2021 15:33 9,3 C 91 % 1017,6 hPa 0,0 l/m 9,8 km/h N-NW 341 3 min 2,6 UV-I 506 W/m 7,9 C 6,9 C 16,1 km/h
22.04.2021 15:30 9,2 C 92 % 1017,5 hPa 0,0 l/m 8,4 km/h N-NW 333 3 min 2,8 UV-I 538 W/m 8,0 C 7,7 C 14,5 km/h
22.04.2021 15:27 9,1 C 93 % 1017,5 hPa 0,0 l/m 8,4 km/h N-NW 343 3 min 3,1 UV-I 520 W/m 8,0 C 7,6 C 12,9 km/h
22.04.2021 15:24 8,9 C 93 % 1017,5 hPa 0,0 l/m 8,2 km/h N-NW 343 3 min 3,2 UV-I 531 W/m 7,8 C 7,6 C 11,3 km/h
22.04.2021 15:21 8,7 C 93 % 1017,5 hPa 0,0 l/m 6,5 km/h N-NW 348 3 min 3,2 UV-I 519 W/m 7,6 C 8,6 C 9,7 km/h
22.04.2021 15:18 8,6 C 93 % 1017,5 hPa 0,0 l/m 5,4 km/h N-NW 344 3 min 2,9 UV-I 408 W/m 7,5 C 8,6 C 9,7 km/h
22.04.2021 15:15 8,6 C 92 % 1017,6 hPa 0,0 l/m 3,6 km/h N-NW 344 3 min 2,9 UV-I 471 W/m 7,4 C 8,6 C 8,0 km/h
22.04.2021 15:12 8,5 C 92 % 1017,6 hPa 0,0 l/m 1,5 km/h N-NW 344 3 min 2,7 UV-I 399 W/m 7,3 C 8,5 C 4,8 km/h
_ Min-Zeit 06:00 10:09 20:00 - 20:06 - - - - - 06:00 06:00 20:06
Minimum _ 0,2 C 60 % 1013,6 hPa - 0,0 km/h - - - - - -0,6 C 0,2 C 0,0 km/h
_ Max-Zeit 10:33 08:03 12:45 11:12 12:15 - - 09:51 13:27 13:33 11:33 10:51 12:15
Maximum _ 13,8 C 99 % 1018,2 hPa 0,4 l/m 21,3 km/h
NW
- - 6 min 5,6 UV-I 979 W/m 9,0 C 12,5 C 37,0 km/h
NW
Durchschnitt _ 6,8 C 85 % 1015,8 hPa #4,8 l/m 3,5 km/h NW - #5:39 h 1,9 UV-I 239 W/m 4,3 C 6,2 C 6,9 km/h
Schulla EDV